SIRIUS FM-6             
1 39360U 13058A   19258.08883644 -.00000028  00000-0  00000+0 0  9994
2 39360   0.0014 190.7261 0000312 273.5751 165.3107  1.00272972 21602
BREEZE-M R/B            
1 39361U 13058B   19258.38865923 -.00000032  00000-0  00000+0 0  9993
2 39361  22.9920 256.5136 6126312  15.3112 357.0964  2.17396148 46757
BREEZE-M DEB [TANK]     
1 39362U 13058C   19257.78578483  .00000266  00000-0  67248-4 0  9999
2 39362  49.5490  84.2918 5209824 334.8717   6.9144  5.25726143112587